| DS18B20 | SHTC3 | PZEM-004T | WiFi | ||||||||
|---|---|---|---|---|---|---|---|---|---|---|---|
| ID | Date d/m/Y & Time | data1 สูง | data2 ต่ำ | data3 นอก | temp pcb | hum pcb | Volt | Amp | Watt | rssi | Time |
| 4161 | 18/07/2026 00:48:59 | 28.4  | 28.4  | 25.9  | 29.4  | 66.7  | 227.2  | 0.04  | 4.5  | -77  | 00:48 |
| 4160 | 18/07/2026 00:44:17 | 28.4  | 28.4  | 25.9  | 29.4  | 66.7  | 225.7  | 0.04  | 4.5  | -77  | 00:44 |
| 4159 | 18/07/2026 00:39:34 | 28.4  | 28.4  | 26.2  | 29.4  | 66.8  | 227.5  | 0.04  | 4.5  | -79  | 00:39 |
| 4158 | 18/07/2026 00:34:51 | 28.4  | 28.4  | 26.0  | 29.2  | 66.6  | 225.0  | 0.04  | 4.5  | -79  | 00:34 |
| 4157 | 18/07/2026 00:30:08 | 28.4  | 28.4  | 26.0  | 29.4  | 66.7  | 226.7  | 0.04  | 4.5  | -79  | 00:30 |
| 4156 | 18/07/2026 00:25:25 | 28.4  | 28.4  | 26.2  | 29.4  | 66.7  | 225.1  | 0.04  | 4.5  | -77  | 00:25 |
| 4155 | 18/07/2026 00:20:42 | 28.4  | 28.4  | 26.0  | 29.4  | 66.7  | 226.8  | 0.04  | 4.5  | -74  | 00:20 |
| 4154 | 18/07/2026 00:16:00 | 28.5  | 28.5  | 26.0  | 29.5  | 66.8  | 224.5  | 0.04  | 4.5  | -80  | 00:16 |
| 4153 | 18/07/2026 00:11:18 | 28.5  | 28.5  | 26.1  | 29.6  | 66.7  | 224.9  | 0.04  | 4.5  | -81  | 00:11 |
| 4152 | 18/07/2026 00:06:34 | 28.6  | 28.5  | 26.1  | 29.5  | 66.7  | 225.3  | 0.04  | 4.5  | -78  | 00:06 |
| 4151 | 18/07/2026 00:01:51 | 28.5  | 28.6  | 26.5  | 29.7  | 66.8  | 224.8  | 0.04  | 4.5  | -79  | 00:01 |
| 4150 | 17/07/2026 23:57:09 | 28.6  | 28.6  | 26.4  | 29.6  | 66.6  | 226.7  | 0.04  | 4.5  | -78  | 23:57 |
| 4149 | 17/07/2026 23:52:24 | 28.6  | 28.6  | 26.4  | 29.6  | 66.8  | 225.5  | 0.04  | 4.5  | -75  | 23:52 |
| 4148 | 17/07/2026 23:47:42 | 28.6  | 28.6  | 26.4  | 29.5  | 66.8  | 226.6  | 0.04  | 4.5  | -78  | 23:47 |
| 4147 | 17/07/2026 23:42:59 | 28.6  | 28.6  | 26.5  | 29.5  | 66.7  | 225.5  | 0.04  | 4.5  | -81  | 23:42 |
| 4146 | 17/07/2026 23:38:17 | 28.6  | 28.6  | 26.5  | 29.6  | 66.8  | 227.5  | 0.04  | 4.5  | -80  | 23:38 |
| 4145 | 17/07/2026 23:33:33 | 28.6  | 28.6  | 26.4  | 29.5  | 66.7  | 225.2  | 0.04  | 4.5  | -81  | 23:33 |
| 4144 | 17/07/2026 23:28:50 | 28.7  | 28.7  | 26.4  | 29.7  | 66.5  | 225.7  | 0.04  | 4.5  | -81  | 23:28 |
| 4143 | 17/07/2026 23:24:07 | 28.7  | 28.7  | 26.4  | 29.7  | 66.6  | 225.5  | 0.04  | 4.5  | -79  | 23:24 |
| 4142 | 17/07/2026 23:19:25 | 28.8  | 28.7  | 26.4  | 29.6  | 66.6  | 226.9  | 0.04  | 4.5  | -79  | 23:19 |
| 4141 | 17/07/2026 23:14:42 | 28.8  | 28.7  | 26.7  | 29.8  | 66.6  | 225.1  | 0.04  | 4.5  | -79  | 23:14 |
| 4140 | 17/07/2026 23:09:57 | 28.8  | 28.8  | 26.7  | 29.9  | 66.6  | 226.9  | 0.04  | 4.5  | -77  | 23:09 |
| 4139 | 17/07/2026 23:05:14 | 28.8  | 28.8  | 26.7  | 29.9  | 66.5  | 222.9  | 0.04  | 4.5  | -80  | 23:05 |
| 4138 | 17/07/2026 23:00:32 | 28.8  | 28.8  | 26.7  | 30.0  | 66.7  | 226.9  | 0.04  | 4.5  | -80  | 23:00 |